This is the latest recevied weather packets stored in our database for station/object KO6LQK. If no packets are shown the sender has not sent any weather packets the latest 10 day(s).
| Time | Temp. | Humidity | Pressure | Rain* | Wind** | Luminosity | Snow |
|---|---|---|---|---|---|---|---|
| 1788282268 | 27.22° C | 14% | 1022.6 hPa | 0 mm | - | 602 W/m² | - |
| 1788281967 | 26.67° C | 14% | 1022.6 hPa | 0 mm | - | 591 W/m² | - |
| 1788281662 | 27.22° C | 14% | 1022.4 hPa | 0 mm | - | 575 W/m² | - |
| 1788281358 | 26.67° C | 14% | 1022.3 hPa | 0 mm | - | 557 W/m² | - |
| 1788281058 | 26.67° C | 14% | 1022.4 hPa | 0 mm | - | 545 W/m² | - |
| 1788280753 | 26.67° C | 14% | 1022.4 hPa | 0 mm | - | 528 W/m² | - |
| 1788280448 | 26.67° C | 15% | 1022.4 hPa | 0 mm | - | 517 W/m² | - |
| 1788280142 | 25.56° C | 15% | 1022.2 hPa | 0 mm | - | 499 W/m² | - |
| 1788279842 | 25.56° C | 15% | 1022.6 hPa | 0 mm | - | 487 W/m² | - |
| 1788279542 | 25° C | 16% | 1022.7 hPa | 0 mm | - | 468 W/m² | - |
| 1788279241 | 24.44° C | 18% | 1022.4 hPa | 0 mm | - | 457 W/m² | - |
| 1788278936 | 23.33° C | 21% | 1022.6 hPa | 0 mm | - | 440 W/m² | - |
| 1788278633 | 23.33° C | 21% | 1022.7 hPa | 0 mm | - | 428 W/m² | - |
| 1788278332 | 23.33° C | 22% | 1022.4 hPa | 0 mm | - | 407 W/m² | - |
| 1788278026 | 23.33° C | 22% | 1022.8 hPa | 0 mm | - | 386 W/m² | - |
| 1788277723 | 22.78° C | 22% | 1022.7 hPa | 0 mm | - | 349 W/m² | - |
| 1788277422 | 22.22° C | 23% | 1022.8 hPa | 0 mm | - | 325 W/m² | - |
| 1788277117 | 22.22° C | 23% | 1022.7 hPa | 0 mm | - | 295 W/m² | - |
| 1788276812 | 21.67° C | 23% | 1022.4 hPa | 0 mm | - | 274 W/m² | - |
| 1788276510 | 21.11° C | 23% | 1022.7 hPa | 0 mm | - | 243 W/m² | - |
| 1788276210 | 21.67° C | 23% | 1022.4 hPa | 0 mm | - | 222 W/m² | - |
| 1788275906 | 22.22° C | 22% | 1022.4 hPa | 0 mm | - | 187 W/m² | - |
| 1788275600 | 21.67° C | 22% | 1022.6 hPa | 0 mm | - | 162 W/m² | - |
| 1788275300 | 21.67° C | 22% | 1022.3 hPa | 0 mm | - | 130 W/m² | - |
| 1788274998 | 21.67° C | 22% | 1022.6 hPa | 0 mm | - | 112 W/m² | - |
* Rain latest hour (hover to see other rain measurements)
** Current wind speed in m/s (hover to see current wind gust speed)